{"data":{"norad_id":56706,"intl_designator":"2023-067U","name":"STARLINK-30079","alt_names":[],"object_type":"PAYLOAD","status":"ACTIVE","operator":null,"country":"US","launch_date":"2023-05-19","launch_site_code":"AFETR","launch_vehicle":null,"mission":null,"orbit_class":"UNKNOWN","rcs_meters":null,"size_class":null,"mass_kg":null,"dimensions":null,"purposes":["comms"],"wikipedia_slug":null,"has_3d_model":false,"image_url":null,"decayed_at":null,"tle_current":{"epoch":"2026-09-20T10:35:39.266016Z","epoch_age_seconds":119969,"freshness":"FRESH","line1":"1 56706U 23067U   26263.44142669  .00000043  00000+0  11079-4 0  9995","line2":"2 56706  43.0039 261.5308 0001251 275.9727  84.0982 15.27575663185369","mean_motion":15.27575663,"eccentricity":0.0001251,"inclination_deg":43.0039,"raan_deg":261.5308,"arg_perigee_deg":275.9727,"mean_anomaly_deg":84.0982,"bstar":1.1079e-5,"rev_number":18536,"period_min":94.267016350077,"perigee_km":482.20374660337,"apogee_km":483.92041861384,"semimajor_km":6861.1990826086,"source":"CELESTRAK","updated_at":"2026-09-21T09:00:33.484278Z"}}}